Weather reports worldwide

Advertisment
Coningsby, United Kingdom (3391): temperature & dewpoint: 15.01.2020 17:00:00 - 21.01.2020 17:00:00 (GMT)Coningsby, United Kingdom (3391): temperature -20cm & temperature -100cm: 15.01.2020 17:00:00 - 21.01.2020 17:00:00 (GMT)Coningsby, United Kingdom (3391): wind speed & gusts: 15.01.2020 17:00:00 - 21.01.2020 17:00:00 (GMT)Coningsby, United Kingdom (3391): wind direction: 15.01.2020 17:00:00 - 21.01.2020 17:00:00 (GMT)Coningsby, United Kingdom (3391): reduced air pressure: 15.01.2020 17:00:00 - 21.01.2020 17:00:00 (GMT)Coningsby, United Kingdom (3391): visibility: 15.01.2020 17:00:00 - 21.01.2020 17:00:00 (GMT)Coningsby, United Kingdom (3391): precipitation: 15.01.2020 17:00:00 - 21.01.2020 17:00:00 (GMT)
Date & Time tt [°C] td [°C] tt -20cm [°C] tt -100cm [°C] ff [km/h] ff [kn] fx [km/h] fx [kn] dd ppp [hPa] vv [km] rr [mm]
21.01.2020 17:00:00 3,9 2,6 - - 5 3 - - WSW 1038,9 10 0,0
21.01.2020 16:00:00 6,3 3,8 - - 9 5 - - W 1038,8 10 0,0
21.01.2020 15:00:00 7,3 4,0 - - 9 5 - - W 1039,3 10 0,0
21.01.2020 14:00:00 7,5 4,1 - - 11 6 - - WSW 1039,6 10 0,0
21.01.2020 13:00:00 7,3 4,0 - - 13 7 - - WSW 1040,4 10 0,0
21.01.2020 12:00:00 6,0 3,9 - - 9 5 - - SW 1041,0 10 0,0
21.01.2020 11:00:00 3,7 2,7 - - 8 4 - - WSW 1041,7 10 0,0
21.01.2020 10:00:00 0,8 0,8 - - 2 1 - - WNW 1041,7 5 0,0
21.01.2020 09:00:00 -1,6 -1,7 4,7 7,7 4 2 - - S 1041,4 0,6 0,0
21.01.2020 08:00:00 -1,7 -1,9 - - 2 1 - - W 1041,4 0,6 0,0
21.01.2020 07:00:00 -0,5 -0,6 - - 5 3 - - W 1041,2 2,5 0,0
21.01.2020 06:00:00 0,1 -0,1 - - 4 2 - - W 1041,2 3,0 0,0
21.01.2020 05:00:00 0,0 -0,2 - - 9 5 - - W 1041,3 3,0 0,0
21.01.2020 04:00:00 -0,8 -1,1 - - 11 6 - - WSW 1041,8 2,2 0,0
21.01.2020 03:00:00 -1,0 -1,4 - - 8 4 - - WSW 1041,9 0,6 0,0
21.01.2020 02:00:00 0,1 -0,2 - - 8 4 - - W 1042,0 3,5 0,0
21.01.2020 01:00:00 -0,4 -0,7 - - 8 4 - - W 1042,6 4,0 0,0
21.01.2020 00:00:00 0,2 -0,1 - - 4 2 - - WSW 1043,2 4,0 0,0
20.01.2020 23:00:00 0,2 -0,1 - - 11 6 - - WSW 1043,3 5 0,0
20.01.2020 22:00:00 -0,6 -1,3 - - 5 3 - - SW 1043,8 7 0,0
20.01.2020 21:00:00 2,5 2,0 - - 2 1 - - W 1044,0 10 0,0
20.01.2020 20:00:00 1,3 0,8 - - 4 2 - - SW 1044,3 10 0,0
20.01.2020 19:00:00 2,4 1,7 - - 8 4 - - WSW 1044,4 10 0,0
20.01.2020 18:00:00 3,0 1,7 - - 13 7 - - SW 1044,2 10 0,0
20.01.2020 17:00:00 3,4 1,8 - - 15 8 - - SW 1044,5 10 0,0
20.01.2020 16:00:00 5,3 2,2 - - 13 7 - - SW 1044,7 10 0,0
20.01.2020 15:00:00 7,0 3,5 - - 15 8 - - WSW 1044,8 10 0,0
20.01.2020 14:00:00 7,4 3,5 - - 18 10 - - W 1045,2 10 0,0
20.01.2020 13:00:00 7,0 3,3 - - 18 10 - - W 1046,1 10 0,0
20.01.2020 12:00:00 5,9 3,3 - - 13 7 - - WSW 1046,9 25 0,0
20.01.2020 11:00:00 4,0 2,0 - - 8 4 - - SSW - 10 -
20.01.2020 10:00:00 1,5 0,5 - - 5 3 - - SW 1047,5 10 0,0
20.01.2020 09:00:00 0,3 -0,5 5,0 7,7 8 4 - - W 1047,5 10 0,0
20.01.2020 08:00:00 1,1 0,0 - - 11 6 - - W 1047,2 10 0,0
20.01.2020 07:00:00 0,0 -0,4 - - 11 6 - - WSW 1047,1 10 0,0
20.01.2020 06:00:00 -1,5 -2,5 - - 8 4 - - SW 1047,4 5 0,0
20.01.2020 05:00:00 0,8 -0,2 - - 2 1 - - WNW 1046,9 10 0,0
20.01.2020 04:00:00 1,4 0,4 - - 11 6 - - W 1047,3 10 0,0
20.01.2020 03:00:00 0,4 0,0 - - 8 4 - - WSW 1048,0 7 0,0
20.01.2020 02:00:00 0,4 -0,2 - - 5 3 - - WSW 1048,5 7 0,0
20.01.2020 01:00:00 1,0 0,3 - - 4 2 - - WSW 1048,1 8 0,0
20.01.2020 00:00:00 1,0 -0,2 - - 8 4 - - S 1048,0 10 0,0
19.01.2020 23:00:00 1,5 0,6 - - 8 4 - - SSW 1047,8 10 0,0
19.01.2020 22:00:00 1,2 -0,1 - - 8 4 - - SSW 1047,8 10 0,0
19.01.2020 21:00:00 2,9 0,9 - - 11 6 - - W 1047,6 10 0,0
19.01.2020 20:00:00 2,2 0,4 - - 9 5 - - WSW 1047,3 10 0,0
19.01.2020 19:00:00 0,8 -0,3 - - 8 4 - - SW 1047,4 10 0,0
19.01.2020 18:00:00 1,9 0,4 - - 5 3 - - WSW 1047,3 10 0,0
19.01.2020 17:00:00 2,2 -0,7 - - 5 3 - - SSW 1047,0 10 0,0
19.01.2020 16:00:00 5,7 1,0 - - 11 6 - - W 1046,4 30 0,0
19.01.2020 15:00:00 6,3 0,6 - - 8 4 - - WNW 1045,7 10 0,0
19.01.2020 14:00:00 5,9 0,6 - - 8 4 - - WNW 1045,5 10 0,0
19.01.2020 13:00:00 5,2 0,4 - - 15 8 - - NNW 1045,4 10 0,0
19.01.2020 12:00:00 3,9 0,4 - - 13 7 - - NW 1045,4 10 0,0
19.01.2020 11:00:00 2,5 -0,7 - - 13 7 - - NW 1045,4 10 0,0
19.01.2020 10:00:00 1,4 -0,9 - - 13 7 - - NW 1044,9 10 0,0
19.01.2020 09:00:00 0,4 -1,2 5,7 8,0 9 5 - - NW 1043,9 10 0,0
19.01.2020 08:00:00 -0,2 -1,4 - - 15 8 - - NW 1042,9 10 0,0
19.01.2020 07:00:00 0,0 -1,3 - - 11 6 - - NNW 1041,8 10 0,0
19.01.2020 06:00:00 0,0 -1,3 - - 11 6 - - NW 1040,8 10 0,0
19.01.2020 05:00:00 0,7 -0,9 - - 13 7 - - NW 1039,8 10 0,0
19.01.2020 04:00:00 0,6 -0,7 - - 9 5 - - NW 1039,3 10 0,0
19.01.2020 03:00:00 0,8 -0,6 - - 11 6 - - WNW 1038,8 30 0,0
19.01.2020 02:00:00 1,0 -0,2 - - 9 5 - - WNW 1038,2 35 0,0
19.01.2020 01:00:00 1,3 0,0 - - 8 4 - - NW 1037,2 10 0,0
19.01.2020 00:00:00 1,6 0,3 - - 9 5 - - NW 1036,2 10 0,0
18.01.2020 23:00:00 2,1 0,6 - - 11 6 - - NW 1034,9 10 0,0
18.01.2020 22:00:00 2,7 1,0 - - 13 7 - - NW 1033,9 10 0,0
18.01.2020 21:00:00 3,0 1,0 - - 11 6 - - NW 1033,3 30 0,0
18.01.2020 20:00:00 3,6 1,2 - - 18 10 - - NW 1032,4 10 0,0
18.01.2020 19:00:00 3,9 0,9 - - 15 8 - - WNW 1031,4 10 0,0
18.01.2020 18:00:00 4,3 0,9 - - 13 7 - - WNW 1030,4 10 0,0
18.01.2020 17:00:00 4,8 1,2 - - 15 8 - - W 1029,5 10 0,0
18.01.2020 16:00:00 6,4 1,3 - - 18 10 - - WNW 1028,6 10 0,0
18.01.2020 15:00:00 7,5 1,2 - - 21 11 - - WNW 1027,8 10 0,0
18.01.2020 14:00:00 7,5 1,6 - - 26 14 - - NW 1027,1 40 0,0
18.01.2020 13:00:00 7,2 1,7 - - 21 11 - - NW 1026,7 10 0,0
18.01.2020 12:00:00 6,0 1,9 - - 22 12 - - WNW 1026,3 10 0,0
18.01.2020 11:00:00 4,3 1,8 - - 24 13 - - W 1025,9 10 0,0
18.01.2020 10:00:00 3,3 1,3 - - 22 12 - - W 1025,0 10 0,0
18.01.2020 09:00:00 2,6 0,9 6,7 8,0 22 12 - - W 1024,2 10 0,0
18.01.2020 08:00:00 2,4 0,7 - - 22 12 - - W 1023,3 10 0,0
18.01.2020 07:00:00 2,5 0,8 - - 16 9 - - W 1022,1 30 0,0
18.01.2020 06:00:00 2,3 0,8 - - 15 8 - - W 1021,3 10 0,0
18.01.2020 05:00:00 2,4 1,1 - - 18 10 - - W 1020,3 10 0,0
18.01.2020 04:00:00 3,2 1,1 - - 16 9 - - W 1019,8 10 0,0
18.01.2020 03:00:00 3,2 1,7 - - 21 11 - - W 1019,3 10 0,0
18.01.2020 02:00:00 3,5 1,7 - - 24 13 - - W 1018,6 10 0,0
18.01.2020 01:00:00 3,9 2,1 - - 21 11 - - W 1017,8 45 0,0
18.01.2020 00:00:00 4,0 2,3 - - 22 12 - - W 1016,9 10 0,4
17.01.2020 23:00:00 3,4 1,9 - - 16 9 - - WSW 1016,3 10 0,0
17.01.2020 22:00:00 3,4 1,5 - - 16 9 - - WSW 1015,7 10 0,0
17.01.2020 21:00:00 2,5 1,1 - - 13 7 - - WSW 1015,1 10 0,0
17.01.2020 20:00:00 3,1 1,4 - - 13 7 - - SW 1014,6 10 0,0
17.01.2020 19:00:00 3,3 1,9 - - 16 9 - - SW 1013,9 40 0,0
17.01.2020 18:00:00 4,0 2,1 - - 15 8 - - SW 1013,3 10 0,0
17.01.2020 17:00:00 4,6 2,3 - - 22 12 - - WSW 1012,4 10 0,0
17.01.2020 16:00:00 5,3 2,8 - - 22 12 - - WSW 1011,4 10 0,0
17.01.2020 15:00:00 5,7 3,4 - - 28 15 46 25 W 1010,2 10 0,2
17.01.2020 14:00:00 5,7 3,1 - - 31 17 55 30 NW 1008,7 25 1,0
17.01.2020 13:00:00 8,3 5,6 - - 24 13 - - SW - 7 0,0
17.01.2020 12:00:00 9,0 5,4 - - 24 13 - - SW 1006,4 10 0,0
17.01.2020 11:00:00 9,1 6,5 - - 24 13 - - SW 1006,5 10 0,0
17.01.2020 10:00:00 8,6 7,0 - - 21 11 - - SSW 1006,4 10 0,0
17.01.2020 09:00:00 8,4 7,3 5,7 8,0 18 10 - - S 1006,1 10 0,0
17.01.2020 08:00:00 8,7 7,8 - - 16 9 - - S 1005,9 10 0,0
17.01.2020 07:00:00 8,7 8,0 - - 13 7 - - S 1006,0 15 0,0
17.01.2020 06:00:00 8,6 7,7 - - 13 7 - - S 1006,3 10 0,0
17.01.2020 05:00:00 8,5 7,6 - - 11 6 - - S 1006,4 10 0,0
17.01.2020 04:00:00 8,5 7,8 - - 13 7 - - S 1006,7 10 0,0
17.01.2020 03:00:00 8,8 7,7 - - 13 7 - - SSW 1007,1 10 0,0
17.01.2020 02:00:00 9,0 8,1 - - 9 5 - - SSW 1007,3 10 0,0
17.01.2020 01:00:00 9,6 8,5 - - 16 9 - - SSW 1007,4 10 0,0
17.01.2020 00:00:00 10,1 8,9 - - 18 10 - - S 1007,2 10 0,0
16.01.2020 23:00:00 10,2 9,0 - - 22 12 - - S 1006,9 10 0,0
16.01.2020 22:00:00 10,4 9,0 - - 24 13 - - S 1006,6 10 0,0
16.01.2020 21:00:00 10,9 8,8 - - 26 14 50 27 S 1006,4 10 0,0
16.01.2020 20:00:00 11,4 8,0 - - 31 17 52 28 S 1006,2 10 0,0
16.01.2020 19:00:00 10,8 7,7 - - 28 15 48 26 S 1005,9 10 0,0
16.01.2020 18:00:00 9,9 7,3 - - 29 16 50 27 S 1006,0 10 0,0
16.01.2020 17:00:00 9,5 7,3 - - 31 17 52 28 S 1006,6 30 0,0
16.01.2020 16:00:00 9,6 7,0 - - 35 19 55 30 SSE 1007,3 10 0,0
16.01.2020 15:00:00 9,7 7,0 - - 31 17 48 26 SSE 1008,3 10 0,0
16.01.2020 14:00:00 9,2 6,6 - - 29 16 52 28 S 1010,0 10 0,0
16.01.2020 13:00:00 8,8 6,3 - - 31 17 50 27 SSE 1010,9 10 0,0
16.01.2020 12:00:00 7,8 6,0 - - 26 14 46 25 S 1012,9 10 0,0
16.01.2020 11:00:00 8,0 6,0 - - 26 14 - - S 1014,4 10 0,0
16.01.2020 10:00:00 6,7 5,2 - - 21 11 - - S 1015,6 10 0,0
16.01.2020 09:00:00 5,7 4,5 5,2 8,0 22 12 - - S 1015,6 10 0,0
16.01.2020 08:00:00 5,6 4,7 - - 16 9 - - S 1016,0 10 0,0
16.01.2020 07:00:00 5,5 4,6 - - 21 11 - - S 1016,2 10 0,0
16.01.2020 06:00:00 5,0 4,0 - - 16 9 - - S 1016,7 10 0,0
16.01.2020 05:00:00 4,5 3,6 - - 18 10 - - S 1016,7 10 0,0
16.01.2020 04:00:00 4,0 3,0 - - 16 9 - - SSW 1017,2 10 0,0
16.01.2020 03:00:00 4,1 3,1 - - 15 8 - - S 1016,8 10 0,0
16.01.2020 02:00:00 4,2 2,5 - - 22 12 - - SSW 1016,5 10 0,0
16.01.2020 01:00:00 3,9 2,2 - - 18 10 - - SSW 1016,1 10 0,0
16.01.2020 00:00:00 4,5 2,6 - - 24 13 - - SSW 1015,3 10 0,0
15.01.2020 23:00:00 5,2 3,0 - - 22 12 - - SSW 1014,5 10 0,0
15.01.2020 22:00:00 5,4 3,4 - - 24 13 - - SSW 1013,7 10 0,0
15.01.2020 21:00:00 5,7 3,3 - - 18 10 - - SSW 1013,0 10 0,0
15.01.2020 20:00:00 5,7 2,8 - - 21 11 - - SSW 1011,5 10 0,0
15.01.2020 19:00:00 5,9 3,2 - - 24 13 - - SW 1010,6 10 0,0
15.01.2020 18:00:00 5,8 3,4 - - 21 11 - - SW 1009,5 10 0,0
15.01.2020 17:00:00 6,5 3,6 - - 24 13 - - SW 1008,3 10 0,0

tt = temperature
td = dewpoint
tt -20cm = temperature -20cm
tt -100cm = temperature -100cm
ff = wind speed
fx = gusts
dd = wind direction
ppp = reduced air pressure
vv = visibility
rr = precipitation

Next stations